Regional Weather Roundup
Issued by NWS

Home | Current Version | Previous Version | Text Only | Print | Product List | Glossary Off
Versions: 1 2 3 4 5 6 7 8 9 10 11 12 13 14 15 16 17 18 19 20 21 22 23 24 25 26 27 28 29 30 31 32 33 34 35 36 37 38 39 40 41 42 43 44 45 46 47 48 49 50

000
ASUS45 KABQ 061310
RWRNM
NEW MEXICO REGIONAL WEATHER ROUNDUP
NATIONAL WEATHER SERVICE ALBUQUERQUE NM
600 AM MST TUE DEC 06 2016

NOTE: "FAIR" MEANS FEW OR NO CLOUDS BELOW 12,000 FEET AGL WITH NO
       SIGNIFICANT WEATHER OR OBSTRUCTIONS TO VISION.

      THIS PRODUCT IS RELEASED AS TWO VERSIONS.  ONE VERSION NEAR
      THE TOP OF THE HOUR CONTAINING PRELIMINARY DATA FROM ALBUQUERQUE
      AND OTHER STATIONS.  A FINAL VERSION WITH ADDITIONAL DATA IS
      ISSUED ABOUT 10 MINUTES AFTER THE HOUR.

NMZ501-503-504-510>518-061400-
NORTHWEST PLATEAU/NORTHCENTRAL MOUNTAINS

CITY           SKY/WX    TMP DP  RH WIND       PRES   REMARKS
FARMINGTON     FAIR      26  20  77 E8        29.86S WCI  18
LOS ALAMOS     FAIR      32   8  35 S7        29.91R WCI  26
SANTA FE       FAIR      29  15  56 CALM      29.90S
TAOS           FAIR      27   7  43 CALM      29.90R
ANGEL FIRE     FAIR      23   5  46 SW7       29.90R WCI  14

$$
NMZ402-403-502-505>509-061400-
WESTCENTRAL MOUNTAINS/SOUTHWEST MOUNTAINS

CITY           SKY/WX    TMP DP  RH WIND       PRES   REMARKS
GALLUP         FAIR      29  19  66 NE3       29.90F
GRANTS         MOCLDY    33  16  50 CALM      29.93R
SILVER CITY    FAIR      28  21  75 N7        29.98F WCI  21

$$
NMZ407-409-411-412-061400-
SOUTHERN DESERTS

CITY           SKY/WX    TMP DP  RH WIND       PRES   REMARKS
DEMING         FAIR      32  24  72 W5        29.98S WCI  27
LAS CRUCES     FAIR      40  22  49 W15       29.97S WCI  32
HOLLOMAN AFB   FAIR      39  22  51 SE10      29.98S WCI  32
T OR C         FAIR      40  18  41 CALM      29.94R

$$
NMZ519>523-061400-
CENTRAL VALLEYS/CENTRAL HIGHLANDS

CITY           SKY/WX    TMP DP  RH WIND       PRES   REMARKS
ALBUQUERQUE    CLOUDY    36  18  48 CALM      29.92S
DOUBLE EAGLE   MOCLDY    32  18  55 VRB3      29.92S
MORIARTY ARPT  FAIR      27  15  60 E5        29.93S WCI  22
CLINES CORNERS FAIR      24  14  65 E10       29.95R WCI  14
BELEN          FAIR      39  20  46 S6        29.92R WCI  35
SOCORRO        FAIR      37  19  46 S6        29.93S WCI  33

$$
NMZ524>526-539-540-061400-
SOUTHCENTRAL MOUNTAINS

CITY           SKY/WX    TMP DP  RH WIND       PRES   REMARKS
RUIDOSO        FAIR      28  16  59 SE9       30.00R WCI  20

$$
NMZ527>531-061400-
NORTHEAST HIGHLANDS/NORTHEAST PLAINS

CITY           SKY/WX    TMP DP  RH WIND       PRES   REMARKS
LAS VEGAS      FAIR      19   7  59 S10       29.94R WCI   7
RATON          FAIR      11   1  64 E8        29.94R WCI  -1
CLAYTON        FAIR      20   7  57 N10       30.01R WCI   9

$$
NMZ532>537-061400-
EASTCENTRAL PLAINS

CITY           SKY/WX    TMP DP  RH WIND       PRES   REMARKS
TUCUMCARI      FAIR      27   7  42 E9        30.07R WCI  18
CANNON AFB     MOCLDY    27   5  39 NE17      30.04R WCI  15
CLOVIS AIRPORT FAIR      27   7  43 NE18      30.04R WCI  13

$$
NMZ028-029-538-061400-
SOUTHEAST PLAINS

CITY           SKY/WX    TMP DP  RH WIND       PRES   REMARKS
ROSWELL        FAIR      35  12  38 NE12      30.04R WCI  27
ARTESIA        FAIR      34  19  55 N15       30.03R WCI  24
CARLSBAD       FAIR      36  21  54 NE6       30.01R WCI  31
HOBBS          CLEAR     32  14  47 N13       30.02R WCI  22


$$



USA.gov is the U.S. government's official web portal to all federal, state and local government web resources and services.